Location: Kitt Peak
(31.9639°N, 111.5992°W)
Time: 12:26:00
(UTC-07:00)

OTV 5 (USA 277) - Visible Passes

Search period start: 21 September 2017 00:00
Search period end: 01 October 2017 00:00
Orbit: 404 x 417 km, 43.0° (Epoch: 07 September)

Date Brightness Start Highest point End Pass type
(mag) Time Alt. Az. Time Alt. Az. Time Alt. Az.
21 Sep ? 04:49:27 19° NNW 04:49:37 19° NNW 04:52:05 10° NNE visible
22 Sep ? 04:00:50 12° NNE 04:00:50 12° NNE 04:01:13 10° NE visible
22 Sep ? 05:35:03 10° NNW 05:36:29 12° N 05:37:56 10° NNE visible
23 Sep ? 04:44:57 13° NNW 04:45:12 13° N 04:46:55 10° NNE visible
24 Sep ? 05:30:39 10° NNW 05:32:09 12° N 05:33:39 10° NNE visible
25 Sep ? 04:40:25 12° N 04:40:51 12° N 04:42:12 10° NNE visible
26 Sep ? 05:25:35 10° NNW 05:27:46 16° NNE 05:29:57 10° NE visible
27 Sep ? 04:36:02 14° N 04:36:30 14° N 04:38:19 10° NE visible
28 Sep ? 05:20:22 10° NW 05:23:15 27° NNE 05:26:07 10° E visible
29 Sep ? 04:31:56 21° NNE 04:32:03 21° NNE 04:34:37 10° ENE visible
30 Sep ? 05:16:25 20° NW 05:18:33 66° NNE 05:21:48 10° ESE visible
